SARAL (39086 NORAD) Tracking and Keplerian Element Data

This shows tracking and keplerian element data for the satellite.

Feedback or suggestion? Click here.




ElementValue
Catalog39086
NameSARAL
Epoch Orbit29872
Epoch Day317.56813671
Epoch Year2018
RAAN142.1317
Inclination98.5391
Eccentricity0.0001607
Argument of Perigee130.6826
Mean Anonmoly229.4497
Mean Motion14.32026082
Decay Rate-2.4E-07
L11 39086U 13009A 18317.56813671 -.00000024 00000-0 73155-5 0 9999
L22 39086 98.5391 142.1317 0001607 130.6826 229.4497 14.32026082298725

Live tracking and technical data element details for SARAL (NORAD 39086). SARAL can be tracked NOW for your location showing map with azimuth and elevation plus other details from your city location.

Track the satellite on the map from your city or location and see movement details for azimuth, elevation, latitude, longitude, range, height, and movement on the map or in text.







IsCatalogInMostPopularTable: catalog: 39086, numindb: 176
Update: records affected: 1



GetName: 39086 SARAL

Hit Count: updated at: Wed, 14 Nov 2018 12:00:18 GMT